星链-35144(STARLINK-35144)

导读

STARLINK-35144是美国于2025年9月6日发射的卫星,隶属于SpaceX星链星座项目,星链旨在构建覆盖全球的低轨卫星互联网通信系统,为全球偏远地区、海洋等网络薄弱区域提供高速互联网接入服务,该卫星承担着补充星座组网、增强通信覆盖容量与服务稳定性的角色。

Basic Information
目录编号:
65538
目录名称:
STARLINK-35144
国际标识:
2025-200U
轨道中心:
EARTH
卫星名称:
星链-35144
卫星全名:
星链-35144(STARLINK-35144)
卫星状态:
在轨 (已飞行364 天)
发射日期:
2025-09-06 UTC
国别 :
美国 (US)
星等 :
--
Orbit Information
数据来源 国际轨道数据
星历时间: 2026-09-05T12:09:08+0800
14小时前
查看轨道信息
半长轴: 6843.658km
偏心率: 0.0000995
轨道倾角: 97.285°
近地点辐角 101.263°
升交点赤经 314.796°
平近点角 258.872°
近地点: 464.84km
远地点: 466.202km
周期: 93.906分钟
每日圈数: 15.334526
Detailed Information
固有亮度:
5
最大亮度:
2.5
卫星平台:
Starlink V1.0
覆盖范围:
全球
运营商:
太空探索技术公司
运营商所在国:
美国
制造商(研发单位):
太空探索技术公司
制造商所在国:
美国
使用方式:
暂无
Satellite Introduction
Starlink 计划是 SpaceX 推出的全球卫星互联网项目,通过发射低轨道卫星,为全球尤其是偏远地区提供高速、低延迟的互联网服务。自 2019 年起,Starlink 已部署数千颗卫星,旨在缩小全球数字鸿沟,推动互联网普及。该项目还为军事、航空等行业提供通信支持,带来广泛经济效益。
2D Orbit Map
3D Orbit Map
Orbit Altitude Analysis Chart
Orbit Inclination Analysis Chart
Orbit Comprehensive Analysis Chart
View Comprehensive Chart
Conjunction Data List
Event ID Objects TCA Miss Dist (km) Collision Risk Probability Collision Risk Index (CRI) Action
CDM_260907-205605-340106-553821
2026-09-07T
20:56:03+0000
2.424 km
极远距离
1.398202E-6 低风险 0.38
CDM_260903-080306-553806-932122
OBJECT B (69321)
2026-09-03T
08:03:47+0000
2.703 km
极远距离
1.275761E-6 低风险 0.37